Location: Ladrillo (historical)
(32.8195°N, 117.2231°W)
Time: 11:03:11
(UTC+00:00)

deb Explorer IX - All Passes

Search period start: 01 March 2021 00:00
Search period end: 11 March 2021 00:00
Orbit: 537 x 1102 km, 38.8° (Epoch: 28 February)

Date Brightness Start Highest point End Pass type
(mag) Time Alt. Az. Time Alt. Az. Time Alt. Az.
01 Mar - 08:49:58 10° S 08:52:46 18° SE 08:55:31 10° E night (unlit)
01 Mar - 10:35:02 10° WSW 10:39:04 90° NNW 10:43:13 10° ENE visible
01 Mar - 12:22:11 10° WNW 12:26:02 38° N 12:30:12 10° ENE visible
01 Mar - 14:09:04 10° WNW 14:13:17 47° NNE 14:18:06 10° E daylight
01 Mar - 15:55:31 10° WNW 16:00:13 65° SSW 16:05:47 10° SE daylight
01 Mar - 17:43:27 10° WSW 17:46:54 17° SW 17:50:40 10° S daylight
02 Mar - 08:26:12 10° S 08:29:07 18° SE 08:31:55 10° E night (unlit)
02 Mar - 10:11:22 10° WSW 10:15:26 90° NNW 10:19:31 10° ENE night (unlit)
02 Mar - 11:58:35 10° WNW 12:02:22 37° N 12:06:25 10° ENE visible
02 Mar - 13:45:29 10° WNW 13:49:36 46° NNE 13:54:14 10° E visible
02 Mar - 15:31:56 10° WNW 15:36:30 64° SSW 15:41:51 10° SE daylight
02 Mar - 17:19:55 10° WSW 17:23:08 16° SW 17:26:37 10° S daylight
03 Mar - 08:02:25 10° S 08:05:27 19° SE 08:08:19 10° E night (unlit)
03 Mar - 09:47:40 10° WSW 09:51:47 89° NW 09:55:51 10° ENE night (unlit)
03 Mar - 11:34:58 10° WNW 11:38:43 37° N 11:42:40 10° ENE visible
03 Mar - 13:21:54 10° WNW 13:25:55 45° NNE 13:30:25 10° E visible
03 Mar - 15:08:21 10° WNW 15:12:47 63° SSW 15:17:56 10° SE daylight
03 Mar - 16:56:25 10° WSW 16:59:22 16° SW 17:02:35 10° S daylight
04 Mar - 07:38:35 10° S 07:41:46 19° SE 07:44:45 10° E night (unlit)
04 Mar - 09:23:57 10° WSW 09:28:09 89° NNW 09:32:12 10° ENE night (unlit)
04 Mar - 11:11:18 10° WNW 11:15:04 37° N 11:18:57 10° ENE visible
04 Mar - 12:58:18 10° WNW 13:02:15 44° NNE 13:06:35 10° E visible
04 Mar - 14:44:46 10° WNW 14:49:05 62° SSW 14:54:03 10° SE daylight
04 Mar - 16:32:55 10° WSW 16:35:38 15° SW 16:38:32 10° S daylight
05 Mar - 07:14:44 10° SSW 07:18:04 20° SE 07:21:11 10° E night (unlit)
05 Mar - 09:00:12 10° WSW 09:04:31 89° NNW 09:08:33 10° ENE night (unlit)
05 Mar - 10:47:38 10° WNW 10:51:25 36° N 10:55:14 10° ENE visible
05 Mar - 12:34:41 10° WNW 12:38:36 44° NNE 12:42:48 10° E visible
05 Mar - 14:21:10 10° WNW 14:25:24 61° SSW 14:30:11 10° SE daylight
05 Mar - 16:09:27 10° WSW 16:11:53 14° SW 16:14:29 10° S daylight
06 Mar - 06:50:51 10° SSW 06:54:22 21° SE 06:57:37 10° E night (unlit)
06 Mar - 08:36:26 10° WSW 08:40:51 88° NNW 08:44:55 10° ENE night (unlit)
06 Mar - 10:23:57 10° WNW 10:27:46 36° N 10:31:33 10° ENE visible
06 Mar - 12:11:03 10° WNW 12:14:56 43° NNE 12:19:02 10° E visible
06 Mar - 13:57:35 10° WNW 14:01:42 60° SSW 14:06:20 10° SE daylight
06 Mar - 15:45:59 10° WSW 15:48:09 13° SW 15:50:27 10° S daylight
07 Mar - 06:26:57 10° SSW 06:30:40 22° SE 06:34:03 10° E night (unlit)
07 Mar - 08:12:37 10° WSW 08:17:10 88° NNW 08:21:18 10° ENE night (unlit)
07 Mar - 10:00:13 10° WNW 10:04:07 37° N 10:07:52 10° ENE night (unlit)
07 Mar - 11:47:24 10° WNW 11:51:16 43° NNE 11:55:16 10° E visible
07 Mar - 13:33:58 10° WNW 13:38:02 59° SSW 13:42:29 10° SE visible
07 Mar - 15:22:33 10° WSW 15:24:25 12° SW 15:26:23 10° SSW daylight
08 Mar - 06:03:00 10° SSW 06:06:57 22° SE 06:10:29 10° E night (unlit)
08 Mar - 07:48:48 10° WSW 07:53:29 88° NNW 07:57:41 10° ENE night (unlit)
08 Mar - 09:36:28 10° WNW 09:40:26 37° N 09:44:13 10° ENE night (unlit)
08 Mar - 11:23:44 10° WNW 11:27:37 43° NNE 11:31:33 10° E visible
08 Mar - 13:10:21 10° WNW 13:14:21 58° SSW 13:18:41 10° SE visible
08 Mar - 14:59:08 10° WSW 15:00:42 12° SW 15:02:20 10° SSW daylight
09 Mar - 05:39:03 10° SSW 05:43:12 23° SSE 05:46:55 10° E night (unlit)
09 Mar - 07:24:56 10° WSW 07:29:48 88° NNW 07:34:05 10° ENE night (unlit)
09 Mar - 09:12:42 10° WNW 09:16:46 37° N 09:20:35 10° ENE night (unlit)
09 Mar - 11:00:02 10° WNW 11:03:57 43° NNE 11:07:51 10° E visible
09 Mar - 12:46:42 10° WNW 12:50:41 58° SSW 12:54:53 10° SE visible
09 Mar - 14:35:45 10° SW 14:36:59 11° SW 14:38:15 10° SSW daylight
10 Mar - 05:15:04 10° SSW 05:19:27 25° SSE 05:23:21 10° E night (unlit)
10 Mar - 07:01:03 10° WSW 07:06:06 87° NNW 07:10:28 10° ENE night (unlit)
10 Mar - 08:48:53 10° WNW 08:53:05 38° N 08:56:56 10° ENE night (unlit)
10 Mar - 10:36:18 10° WNW 10:40:17 43° NNE 10:44:09 10° E visible
10 Mar - 12:23:03 10° WNW 12:27:00 57° SSW 12:31:08 10° SE visible
10 Mar - 14:12:25 10° SW 14:13:16 10° SW 14:14:07 10° SSW daylight
